This is the latest recevied weather packets stored in our database for station/object W0VI. If no packets are shown the sender has not sent any weather packets the latest 10 day(s).
| Time | Temp. | Humidity | Pressure | Rain* | Wind** | Luminosity | Snow |
|---|---|---|---|---|---|---|---|
| 1778214397 | 7.78° C | 51% | 1009.2 hPa | 0 mm | - | 0 W/m² | - |
| 1778214094 | 7.78° C | 51% | 1009.4 hPa | 0 mm | - | 0 W/m² | - |
| 1778213790 | 7.22° C | 56% | 1009.4 hPa | 0 mm | - | 0 W/m² | - |
| 1778213487 | 7.78° C | 64% | 1009.7 hPa | 0 mm | - | 0 W/m² | - |
| 1778213184 | 7.78° C | 61% | 1009.4 hPa | 0 mm | - | 0 W/m² | - |
| 1778212881 | 7.78° C | 58% | 1009.4 hPa | 0 mm | - | 0 W/m² | - |
| 1778212578 | 8.33° C | 55% | 1009.3 hPa | 0 mm | - | 0 W/m² | - |
| 1778212276 | 8.33° C | 51% | 1009.5 hPa | 0 mm | - | 0 W/m² | - |
| 1778211972 | 8.33° C | 52% | 1009.7 hPa | 0 mm | - | 0 W/m² | - |
| 1778211669 | 8.33° C | 52% | 1009.5 hPa | 0 mm | - | 0 W/m² | - |
| 1778211367 | 8.33° C | 52% | 1009.8 hPa | 0 mm | - | 0 W/m² | - |
| 1778211065 | 8.89° C | 50% | 1009.8 hPa | 0 mm | - | 0 W/m² | - |
| 1778210761 | 8.33° C | 54% | 1009.6 hPa | 0 mm | - | 0 W/m² | - |
| 1778210459 | 8.33° C | 54% | 1009.8 hPa | 0 mm | - | 0 W/m² | - |
| 1778210156 | 8.33° C | 54% | 1009.5 hPa | 0 mm | - | 0 W/m² | - |
| 1778209851 | 8.89° C | 59% | 1009.6 hPa | 0 mm | - | 0 W/m² | - |
| 1778209548 | 8.89° C | 55% | 1009.8 hPa | 0 mm | - | 0 W/m² | - |
| 1778209247 | 8.89° C | 57% | 1009.7 hPa | 0 mm | - | 0 W/m² | - |
| 1778208942 | 9.44° C | 58% | 1009.8 hPa | 0 mm | - | 0 W/m² | - |
| 1778208639 | 9.44° C | 54% | 1009.9 hPa | 0 mm | - | 0 W/m² | - |
| 1778208335 | 9.44° C | 56% | 1009.6 hPa | 0 mm | - | 0 W/m² | - |
| 1778208032 | 9.44° C | 52% | 1009.5 hPa | 0 mm | - | 0 W/m² | - |
| 1778207729 | 9.44° C | 54% | 1009.7 hPa | 0 mm | - | 0 W/m² | - |
| 1778207427 | 9.44° C | 52% | 1009.7 hPa | 0 mm | - | 0 W/m² | - |
| 1778207122 | 10° C | 47% | 1009.6 hPa | 0 mm | - | 0 W/m² | - |
* Rain latest hour (hover to see other rain measurements)
** Current wind speed in m/s (hover to see current wind gust speed)